Location: Beaufort
(43.4593°N, 1.1117°E)
Time: 10:06:32
(UTC+00:00)

Daily predictions for brighter satellites

Satellite Brightness Start Highest point End
(mag) Time Altitude Azimuth Time Altitude Azimuth Time Altitude Azimuth
Cosmos 1125 Rocket 3.5 20:05:21 10° NNW 20:10:36 76° ENE 20:15:47 10° SSE
USA 186 3.3 20:11:46 10° E 20:12:53 13° ENE 20:13:59 10° NE
PAYLOAD B 4.3 20:07:24 10° SSE 20:12:58 89° ENE 20:18:37 10° NNW
Cosmos 1812 Rocket 4.4 20:17:00 10° SSW 20:21:20 55° W 20:25:42 10° N
Terra 2.0 20:20:23 10° S 20:25:03 72° WSW 20:29:47 10° NNW
CENTAUR R/B 2.8 20:21:12 10° SW 20:26:33 68° NW 20:33:23 10° NNE
Cosmos 44 Rocket 3.6 20:24:10 10° NNW 20:29:19 66° NE 20:34:01 12° SE
Meteor 1-27 Rocket 3.8 20:26:25 10° S 20:32:02 85° W 20:37:36 10° N
Cosmos 2208 Rocket 4.1 20:28:35 10° S 20:33:39 55° ESE 20:38:42 10° NNE
CZ-3 Stage 3 4.1 20:31:30 10° WSW 20:34:29 12° SW 20:36:36 10° SSW
BREEZE-M DEB (TANK) 4.3 20:33:52 10° WNW 20:36:18 22° N 20:38:02 10° NE
SPOT 3 Rocket 4.3 20:33:59 11° SE 20:38:23 37° ENE 20:43:06 10° N
Cosmos 2082 4.4 20:36:54 10° SW 20:42:25 57° WNW 20:47:57 10° NNE
Cosmos 2227 4.2 20:37:49 10° SSW 20:43:30 68° ESE 20:49:13 10° NNE
YAOGAN 11 4.2 20:40:08 10° NNE 20:44:32 60° E 20:48:52 10° S
Meteor 2-20 Rocket 4.3 20:40:18 10° S 20:46:02 75° E 20:52:01 10° NNE
CZ-4 R/B 3.5 20:43:28 10° SW 20:46:24 22° W 20:49:23 10° NW
Ariane Rocket 3.9 20:44:08 13° SE 20:48:03 35° ENE 20:52:36 10° N
Okean 3 Rocket 4.5 20:44:03 10° N 20:48:07 34° ENE 20:51:06 16° SE
Okean-O 2.6 20:44:49 11° SSE 20:49:02 85° ENE 20:53:25 10° NNW
Cosmos 2266 Rocket 4.3 20:43:34 10° NNW 20:49:46 73° W 20:56:03 10° S
Helios 1A Rocket 3.5 20:47:31 10° N 20:50:30 43° WNW 20:53:28 10° SW
Spot 2 Rocket 3.6 20:45:47 10° SSE 20:50:50 82° WSW 20:55:57 10° NNW
CZ-4B R/B 4.0 20:48:49 10° S 20:54:07 50° W 20:59:20 10° NNW
NOSS 3-2 (A) 2.9 20:49:27 10° SSW 20:54:16 72° ESE 21:00:00 10° NE
Cosmos 1842 Rocket 3.5 20:51:54 10° S 20:56:19 76° E 21:00:45 10° NNE
Cosmos 1340 Rocket 3.5 20:54:16 10° N 20:57:44 34° ENE 20:59:47 19° SE
USA 215 4.4 20:52:12 10° E 20:58:08 39° NNE 21:04:07 10° NW
Cosmos 773 Rocket 4.2 20:53:34 10° SSW 20:58:40 71° WNW 21:03:50 10° NNE
Cosmos 1603 4.0 20:53:49 10° NNW 20:59:28 56° ENE 21:03:42 18° SE
ADEOS 4.4 20:56:20 10° S 21:01:20 47° W 21:06:22 10° NNW
BREEZE-M DEB (TANK) 0.7 20:59:25 10° WNW 21:01:32 70° SSW 21:02:13 33° SE
OAO 3 Rocket 4.1 21:00:06 10° WSW 21:03:59 28° S 21:05:58 20° SE
USA 245 3.3 21:03:10 20° SSE 21:05:37 55° ENE 21:08:48 10° N
Cosmos 1844 Rocket 2.8 21:00:22 10° SSW 21:05:55 81° WNW 21:11:32 10° NNE
EXPRESS MD2 2.9 21:02:35 10° WNW 21:06:49 63° SW 21:08:14 27° SE
SL-14 R/B 3.0 21:06:08 14° S 21:09:12 75° E 21:12:55 10° NNE
Meteor 2-10 Rocket 3.8 21:03:59 10° NNW 21:09:48 81° W 21:14:48 14° S
Cosmos 1238 Rocket 4.4 21:05:58 10° SSW 21:10:38 45° WNW 21:15:13 10° N
Cosmos 1553 Rocket 4.4 21:07:18 16° SSE 21:12:03 46° E 21:18:04 10° NNE
CZ-4C R/B 3.3 21:08:34 10° NW 21:15:47 68° WSW 21:22:42 18° SSE
Cosmos 1151 Rocket 3.4 21:14:27 22° SSE 21:16:55 47° E 21:21:05 10° NNE
Cosmos 1833 Rocket 4.3 21:14:25 10° N 21:18:51 23° NE 21:22:56 11° E
CZ-2C R/B 3.2 21:23:48 24° E 21:24:11 25° ENE 21:26:30 10° NNE
Cosmos 1844 4.2 21:21:23 10° SW 21:27:06 63° WNW 21:32:53 10° NNE
CZ-4B R/B 3.5 21:24:45 23° SSE 21:27:55 74° ENE 21:33:05 10° N
Okean O Rocket 2.9 21:24:41 11° SSW 21:28:29 35° W 21:32:31 10° NNW
Cosmos 1953 3.9 21:26:25 10° NNE 21:28:47 17° ENE 21:29:35 16° E
OAO 2 Rocket 4.1 21:29:11 10° SW 21:33:46 31° S 21:35:03 27° SSE
In-Cosmos 22 4.4 21:28:05 10° SSW 21:33:50 78° W 21:39:37 10° N
NOSS 3-2 (C) 3.1 21:31:30 13° SSW 21:35:41 54° ESE 21:41:14 10° NE
BlueWalker 3 4.3 21:37:59 10° WSW 21:38:19 10° SW 21:38:39 10° SW
NOSS 2-3 (C) 4.2 21:42:37 26° E 21:42:37 26° E 21:44:51 10° ENE
USA 186 3.7 21:41:05 12° WSW 21:42:01 14° W 21:43:24 10° WNW
Cosmos 1461 2.3 21:40:42 10° NW 21:44:13 83° WSW 21:45:06 47° SSE
CZ-4B R/B 3.2 21:42:34 27° SSW 21:44:26 55° W 21:48:19 10° NNW
ATLAS 2AS CENTAUR R/B 4.4 21:45:33 10° WNW 21:50:26 21° WSW 21:55:21 10° SSW
Cosmos 2344 3.9 21:48:48 20° S 21:53:57 42° ESE 22:00:38 10° NE
Sich 1 4.1 21:51:02 10° NNW 21:54:59 38° W 21:57:32 19° SSW
Cosmos 1500 Rocket 3.5 21:50:43 10° N 21:55:04 80° W 21:56:47 35° S
Helios 1A 3.8 21:53:48 10° NE 21:57:18 30° E 21:57:27 30° ESE
Iridium 4 Rocket 3.6 21:55:05 30° SSE 21:57:48 72° E 22:02:56 10° N
Helios 1B rocket 4.2 21:57:41 14° ENE 21:58:20 15° ENE 22:00:17 10° NNE
BREEZE-M R/B 4.0 21:57:27 30° S 21:59:18 44° SE 22:06:54 10° ENE
GP-B 3.0 21:55:14 10° N 21:59:37 89° WNW 22:01:23 36° S
Cosmos 1607 4.0 21:55:47 10° NW 22:02:13 88° NE 22:05:32 31° SE
Cosmos 1241 Rocket 4.4 22:02:40 22° SSW 22:06:47 65° ESE 22:12:56 10° NE
NOSS 2-3 (D) 3.1 22:07:04 27° SW 22:09:00 82° NW 22:12:46 10° NE
Cosmos 1417 Rocket 4.5 22:06:19 31° SSE 22:09:26 69° E 22:15:42 10° NNE
Cosmos 2285 Rocket 4.1 22:03:27 10° NNW 22:09:48 74° WSW 22:13:01 31° S
Cosmos 1538 Rocket 3.9 22:11:36 32° S 22:14:04 80° ESE 22:19:18 10° NNE
Cosmos 2315 Rocket 4.3 22:13:38 33° SSE 22:16:07 52° E 22:22:07 10° NNE
Cosmos 1943 Rocket 3.1 22:16:33 28° ESE 22:17:12 29° ESE 22:21:58 10° NE
Iridium 45 4.1 22:18:34 79° NNW 22:18:34 79° NNW 22:21:30 10° N
Cosmos 1328 Rocket 3.5 22:24:40 54° SSE 22:25:28 67° E 22:29:48 10° NNE
Ariane Rocket 4.4 22:24:12 19° SW 22:26:54 30° W 22:31:21 10° NW
CZ-2C R/B 4.4 22:24:58 10° NNE 22:29:19 37° E 22:29:46 36° ESE
Lacrosse 5 rocket 1.9 22:30:44 35° ENE 22:30:44 35° ENE 22:33:00 10° NE
NOSS 2-3 (E) 4.3 22:33:45 14° WSW 22:36:41 41° NW 22:40:16 10° NNE
Cosmos 1666 Rocket 3.4 22:32:25 10° N 22:36:47 85° E 22:37:29 62° SSE
Cosmos 1703 4.5 22:37:13 24° W 22:37:52 26° WNW 22:40:36 10° NNW
USA 215 3.2 22:37:29 32° SE 22:40:46 85° SW 22:47:21 10° NW
GEOS 3 Rocket 4.1 22:45:16 30° ESE 22:47:46 57° NE 22:53:03 10° NNW
S3M 4.1 22:48:41 32° SSW 22:51:36 68° W 22:57:44 10° N
Timation 1 Rocket 4.4 22:46:40 10° NNW 22:52:39 74° ENE 22:54:45 42° SE
Cosmos 1515 Rocket 3.7 22:55:38 55° ESE 22:55:50 56° E 23:00:06 10° NNE
Meteor 1-15 Rocket 4.4 22:53:38 10° NNW 22:59:23 64° W 23:01:13 42° SSW
USA 59 Rocket 1.3 23:01:29 21° ENE 23:01:29 21° ENE 23:02:43 10° NE
Spot 4 4.0 22:59:30 50° ESE 23:00:30 62° ENE 23:05:16 10° N
ARGOS Delta rocket 4.0 22:55:31 10° N 23:00:54 89° E 23:02:18 51° S
Cosmos 1833 Rocket 2.8 22:57:37 10° NNW 23:03:12 62° WSW 23:04:36 47° SSW
Cosmos 1953 3.4 23:00:38 10° NNW 23:03:45 29° W 23:03:47 29° W
Cosmos 1709 Rocket 4.3 23:00:48 10° NNW 23:07:03 61° W 23:09:28 37° SSW
Meteor 1-16 Rocket 4.1 23:01:37 10° NNW 23:07:10 82° W 23:08:42 50° S
Cosmos 2082 Rocket 3.5 23:03:52 10° N 23:08:53 32° NE 23:11:52 20° ESE
Okean 3 3.9 23:09:18 45° ENE 23:09:18 45° ENE 23:12:50 10° NNE
Meteor 1-23 Rocket 4.4 23:07:55 40° SSW 23:09:54 67° WNW 23:15:28 10° N
Cosmos 2278 Rocket 2.3 23:09:54 51° SSE 23:10:57 60° ESE 23:16:32 10° NNE
Cosmos 1633 Rocket 3.6 23:10:22 10° NNW 23:14:32 45° W 23:15:02 43° WSW
Cosmos 1680 Rocket 3.4 23:22:43 52° SW 23:23:59 79° WNW 23:29:12 10° NNE
Cosmos 494 Rocket 3.9 23:24:38 58° SSW 23:25:43 89° ESE 23:31:00 10° NNE
Cosmos 1400 Rocket 2.9 23:22:15 10° N 23:25:30 60° NE 23:25:30 60° NE
Cosmos 1624 Rocket 4.0 23:20:47 10° NNW 23:26:06 79° ENE 23:27:15 55° SE
CZ-2C R/B 3.3 23:23:22 10° NNE 23:28:47 55° E 23:29:38 49° SE
Helios 1B rocket 3.3 23:31:35 32° WNW 23:31:35 32° WNW 23:34:09 10° NNW
Cosmos 1048 Rocket 4.3 23:31:20 46° ESE 23:31:45 47° ESE 23:36:46 10° NNE
Meteor 1-12 Rocket 4.3 23:26:40 10° NNW 23:32:20 73° W 23:33:43 52° SSW
Cosmos 2056 Rocket 3.3 23:27:43 10° NNW 23:32:50 88° WSW 23:33:39 64° SSE
ARIANE 5 R/B 2.8 23:36:34 57° WSW 23:36:47 57° W 23:41:11 10° NNW
USA 238 DEB 3.5 23:36:16 35° SW 23:39:01 80° NW 23:45:43 10° NE
USA 238 3.5 23:36:31 36° SW 23:39:13 81° NW 23:45:55 10° NE
ACS3 Solar Sail 2.5 23:36:44 10° NNE 23:41:56 34° E 23:43:11 31° ESE
Okean 2 4.5 23:42:05 31° W 23:42:17 31° WNW 23:45:45 10° NNW
BREEZE-M DEB (TANK) 4.3 23:35:25 10° W 23:48:55 53° N 23:53:07 10° ENE
ALOS 2 3.0 23:49:18 49° WSW 23:49:22 49° W 23:53:39 10° NNW
Geosat 4.4 23:44:40 10° NE 23:49:29 45° ESE 23:49:42 45° ESE
Cosmos 1441 Rocket 4.0 23:54:18 41° NNW 23:54:18 41° NNW 23:56:37 10° N
Cosmos 1933 Rocket 3.6 23:49:37 10° NNW 23:53:51 60° W 23:53:52 60° W
